Theta_e
301 302 302 302 302 304 306 311 314 314 313 305 305 306 310 311 312 311 313 310 310 315 316 314 314 315 316 315 318 318 318 317 318 321 324 325 328 330 331 329 331 333 334 338 337 333 336 337 338 342 343 342 340 339
301 301 302 302 301 303 306 310 313 314 313 305 303 306 310 311 311 312 313 308 307 311 316 312 312 312 312 313 315 316 318 317 316 325 326 326 329 331 331 331 331 333 330 334 336 336 335 336 337 337 338 337 336 338
301 301 301 302 301 302 304 308 313 313 312 303 304 306 309 311 311 313 309 307 307 313 316 316 317 314 312 312 312 316 317 317 317 318 325 324 329 329 330 329 328 330 331 335 333 333 333 337 335 334 334 335 333 334
300 300 301 301 301 302 304 308 312 313 311 301 304 305 308 310 312 313 310 309 308 312 317 318 312 313 312 312 311 312 315 311 313 315 318 320 322 324 325 326 328 327 331 327 329 332 332 333 334 334 333 332 331 331
300 300 301 301 301 301 304 307 311 312 308 301 302 308 309 312 313 312 312 311 308 311 318 318 315 313 310 309 311 312 312 315 315 315 315 318 319 321 323 325 325 326 327 323 324 333 334 333 334 332 331 331 331 331
300 300 301 301 301 301 303 308 311 311 300 301 309 310 310 312 312 311 314 311 311 310 315 317 314 313 309 310 312 313 313 314 315 314 316 316 317 320 321 324 324 324 325 322 323 333 330 332 329 325 329 331 331 330
299 300 301 301 301 301 303 309 310 307 301 305 309 309 311 310 312 310 312 309 309 310 313 316 316 312 310 312 312 313 313 314 314 315 316 317 317 319 318 320 321 322 321 321 328 332 331 331 331 331 332 333 330 330
300 300 300 301 301 301 304 309 309 303 306 309 309 310 312 312 311 311 312 310 308 310 311 314 315 314 312 317 315 312 314 314 314 315 317 318 319 319 318 318 319 318 321 323 331 331 332 331 331 332 331 326 326 328
300 300 301 301 301 302 306 309 302 304 308 308 310 311 310 310 312 313 308 307 307 310 315 313 315 318 315 316 318 314 315 317 317 317 319 319 320 321 319 319 320 322 323 330 330 331 331 332 332 332 328 325 326 327
301 301 301 301 302 304 308 304 303 307 309 309 311 310 314 313 310 307 307 310 312 313 312 313 313 315 314 315 318 321 318 319 321 321 319 320 321 323 327 328 326 323 322 328 331 332 331 330 331 332 327 325 326 327
301 300 301 301 303 307 308 302 306 309 311 310 311 314 310 307 308 306 310 313 313 313 312 312 313 314 313 316 318 319 323 323 322 322 322 323 324 331 330 331 329 328 322 325 329 327 326 329 330 330 328 326 327 327
300 301 301 303 307 308 301 303 308 310 311 311 311 310 308 309 310 314 315 313 313 315 314 314 316 312 314 314 316 319 325 325 324 326 327 326 331 328 331 331 330 328 325 327 328 327 328 330 330 329 328 327 327 327
301 301 303 306 307 303 302 307 308 311 309 308 311 312 313 313 316 315 316 315 317 316 317 317 319 316 315 313 315 320 323 322 325 326 326 330 326 326 329 331 330 329 328 327 327 327 328 329 328 328 328 327 327 328
303 303 306 307 303 301 305 308 308 309 311 312 314 315 315 315 315 315 315 316 317 317 318 318 319 317 315 315 316 321 321 323 323 324 326 327 326 328 327 327 330 329 329 329 329 329 329 328 328 327 326 325 325 325
304 306 305 302 301 302 304 307 309 309 309 314 315 320 315 315 314 315 315 315 316 316 317 319 318 318 317 318 322 321 321 321 324 325 325 327 326 327 327 325 326 327 327 327 326 325 324 324 324 324 324 323 323 324
305 304 303 303 305 307 307 308 309 309 310 314 315 316 315 316 316 316 316 317 316 317 317 318 318 316 316 320 321 320 320 324 325 324 324 325 324 322 323 324 324 324 323 324 323 323 322 323 324 324 324 324 323 323
302 301 303 304 306 307 308 308 308 310 313 314 314 315 317 317 318 317 316 316 316 319 319 317 316 316 318 318 319 322 324 325 324 325 322 325 325 325 324 324 322 321 323 324 324 324 324 324 323 324 325 324 324 325
301 300 301 304 306 307 307 307 308 311 313 313 314 315 313 313 315 315 315 317 319 319 319 320 319 318 317 317 319 320 321 321 323 323 324 324 323 322 321 323 321 322 324 323 324 324 324 325 324 323 325 325 324 323
301 302 303 305 306 306 307 306 310 311 312 312 312 312 311 311 312 313 314 316 318 317 319 319 319 318 320 319 319 318 319 319 321 323 323 322 321 320 320 321 322 324 324 325 325 323 323 323 323 322 321 322 320 320
300 302 305 305 305 308 309 310 309 311 312 312 311 312 312 312 312 314 314 317 318 317 318 318 317 317 316 317 317 317 319 321 323 323 324 323 320 320 321 322 323 323 325 325 324 321 323 322 321 320 321 320 320 319
304 304 304 305 308 308 309 309 309 310 310 311 311 312 313 313 314 315 315 315 317 317 316 315 315 317 319 318 319 321 322 322 324 323 323 320 319 319 320 320 322 322 324 324 322 321 319 319 318 318 318 318 317 318
305 304 306 306 308 309 310 309 310 309 311 312 313 315 315 314 314 314 316 316 316 316 317 317 317 318 318 320 321 320 320 321 321 320 318 317 318 322 321 320 322 324 320 319 319 319 318 318 317 317 317 318 317 318
304 306 306 306 308 308 310 311 312 312 313 313 314 314 315 316 316 317 315 315 316 318 318 318 319 319 320 319 319 319 319 320 319 321 319 321 321 320 320 320 321 320 320 318 318 318 319 319 319 318 318 318 318 318
304 306 307 308 309 310 310 312 313 314 314 313 313 313 314 316 317 317 316 316 316 317 318 320 318 318 318 319 318 318 318 317 317 318 319 321 322 321 320 319 320 320 320 320 320 320 320 320 319 318 318 318 318 318
305 306 307 306 308 310 311 312 313 314 313 313 314 314 317 318 317 317 317 318 318 319 319 318 317 319 318 318 318 320 320 321 320 321 321 320 320 319 318 318 319 319 319 319 319 319 319 319 318 318 318 318 318 318
307 307 306 309 311 311 311 311 312 313 313 313 314 316 317 317 317 317 316 316 317 319 319 320 320 320 320 319 323 323 320 319 320 320 319 319 318 318 319 319 319 318 316 316 318 318 318 318 318 318 318 318 318 318
307 308 309 309 311 312 313 312 313 313 314 315 317 316 315 313 313 315 316 316 319 319 317 318 319 319 319 319 318 318 318 320 321 320 318 316 315 314 314 314 314 312 313 314 315 316 317 317 318 318 318 318 318 318
308 309 310 311 312 313 313 313 313 315 316 315 314 312 312 314 319 319 319 319 319 319 318 318 317 318 318 319 319 319 319 320 319 318 318 317 314 311 311 310 309 308 309 308 308 310 311 313 313 314 314 315 312 310
308 310 311 312 312 313 314 315 314 313 311 312 311 313 317 316 313 316 318 319 319 319 318 320 318 317 317 316 314 313 315 316 317 317 316 315 313 310 309 308 308 307 307 307 305 305 304 305 305 306 307 307 307 306
310 309 311 311 311 312 312 313 312 312 310 311 311 312 311 311 309 310 313 315 317 318 318 318 318 316 311 310 310 310 310 311 311 311 312 312 310 308 307 306 306 305 305 305 304 304 303 304 304 304 304 304 303 303
307 308 309 309 310 311 311 308 309 310 313 313 313 313 312 313 310 310 312 313 314 315 314 313 312 311 311 311 311 311 311 309 309 308 307 308 307 306 306 305 304 304 304 304 303 303 303 303 303 303 303 302 302 301
309 310 315 317 318 314 312 316 316 316 316 314 314 313 314 315 314 311 309 311 311 311 310 310 310 310 310 310 309 309 307 307 306 306 306 306 305 305 304 304 304 303 303 303 303 302 302 302 301 301 300 299 298 297
320 318 318 318 318 318 318 317 316 316 316 316 317 316 315 313 312 311 309 309 309 309 310 309 309 309 308 307 307 307 306 302 301 301 301 300 300 301 302 302 302 302 302 302 301 301 300 299 299 297 296 296 295 295
Wind_Speed
19 19 19 18 17 16 18 17 15 16 14 13 12 11 16 13 12 9 3 5 7 4 8 9 10 9 7 5 7 5 6 6 6 9 6 4 5 4 6 3 6 4 5 3 4 7 4 11 3 4 5 10 8 4
20 19 19 19 17 16 18 17 15 17 15 13 14 12 18 14 14 11 5 5 6 7 6 9 13 16 17 16 7 4 5 3 4 5 4 3 4 2 4 1 3 1 6 6 4 3 8 4 2 2 6 5 4 4
20 20 19 19 18 16 19 18 15 17 16 15 14 12 18 15 16 15 4 4 4 6 11 11 6 10 13 23 22 9 6 3 3 4 5 2 4 4 3 1 5 5 1 3 8 3 4 3 4 4 6 2 5 5
20 21 20 19 17 16 19 18 15 18 16 15 14 12 20 17 16 16 6 6 3 4 4 2 4 4 5 10 16 23 11 1 5 5 6 5 4 1 4 5 7 4 3 5 5 4 7 5 3 5 5 3 4 5
21 20 20 19 17 17 20 17 16 18 17 15 14 16 20 16 15 17 12 10 9 4 5 7 16 2 4 6 13 15 16 11 6 5 6 6 4 4 6 4 7 5 4 7 9 8 4 2 6 6 3 3 2 4
21 21 19 19 17 18 19 17 17 17 16 15 16 18 18 16 15 7 3 9 14 9 4 3 4 2 3 2 14 12 11 7 6 4 5 5 4 5 5 6 4 4 2 8 9 5 3 3 4 7 8 4 5 6
20 21 20 18 17 18 18 15 18 18 18 16 18 16 17 16 18 4 3 3 11 9 3 4 2 5 4 7 6 5 10 5 6 5 5 9 7 4 7 12 13 12 13 6 4 2 3 4 5 9 4 7 7 7
19 19 19 18 16 18 18 16 19 19 18 19 17 14 15 18 10 7 8 2 11 5 3 4 3 4 6 4 4 5 5 6 6 5 4 6 3 4 5 8 7 6 5 5 7 7 2 2 4 5 6 5 7 6
20 19 18 18 17 18 15 21 22 20 20 20 16 18 16 5 6 3 4 12 3 4 3 3 3 3 4 3 2 5 4 5 4 5 7 4 7 6 7 7 5 2 5 2 8 8 7 6 4 5 5 4 7 5
19 18 18 17 17 20 20 25 24 23 24 23 19 4 3 8 7 14 4 4 4 4 4 4 2 3 2 3 6 4 5 5 5 6 3 5 7 8 11 12 12 9 7 3 8 7 7 7 7 8 5 5 6 5
19 19 18 17 19 23 26 28 26 28 29 11 7 2 8 16 4 2 3 4 4 4 4 4 5 4 3 5 1 3 1 2 4 4 3 4 3 10 13 11 8 5 7 5 4 2 2 1 6 7 6 6 5 4
19 19 18 18 23 27 32 31 31 23 13 9 8 13 8 4 4 5 4 4 5 3 5 3 2 4 2 2 4 3 3 2 3 3 3 1 6 12 12 12 10 5 7 6 3 1 3 4 6 6 5 4 3 2
19 18 20 23 27 34 35 32 33 20 20 8 3 4 4 4 3 6 7 4 4 4 5 5 3 3 4 4 4 3 3 5 3 3 0 4 8 9 11 11 11 10 8 6 6 7 8 7 6 5 5 3 1 1
19 23 21 27 33 36 31 33 21 23 7 3 5 4 6 5 5 4 4 3 3 2 4 3 2 3 2 5 2 3 1 3 3 0 3 5 7 7 10 10 11 13 12 9 8 9 9 8 7 6 5 3 3 4
23 23 29 31 33 33 30 24 23 12 2 4 4 4 6 1 2 3 2 2 3 2 3 3 3 3 4 3 2 3 3 2 3 3 3 2 3 4 6 7 8 11 11 9 7 6 6 5 4 4 4 3 3 1
35 31 20 29 29 31 25 26 11 3 4 3 3 3 3 5 5 4 4 3 2 2 2 3 2 3 3 1 2 3 2 2 3 4 3 0 1 7 6 5 6 6 8 11 4 6 5 4 4 3 2 2 2 2
22 8 26 27 28 27 24 10 4 4 2 2 2 0 2 3 5 4 2 0 1 4 3 2 3 2 0 2 1 4 3 4 3 1 2 2 5 6 6 5 4 9 6 10 3 4 3 2 3 4 4 2 5 5
13 35 33 28 27 18 7 4 3 3 2 2 2 5 2 1 1 3 1 1 3 1 2 2 1 4 0 0 3 2 3 3 4 4 4 5 5 6 3 4 7 8 16 6 2 4 6 6 7 3 4 4 7 9
35 34 33 30 19 5 3 1 3 1 2 2 2 2 1 1 1 3 2 1 1 2 2 2 2 1 3 3 5 4 4 4 4 4 3 6 8 5 5 7 11 11 9 4 3 3 6 4 5 6 6 8 12 14
34 32 29 26 11 2 4 3 2 1 2 3 2 3 3 2 2 2 1 1 0 2 2 2 1 3 3 4 4 5 4 3 4 3 4 4 8 6 7 7 5 6 5 5 3 3 4 5 1 3 5 8 9 12
24 20 21 13 4 1 2 3 3 2 2 2 2 1 1 2 2 1 1 1 3 1 2 2 2 4 4 4 3 3 3 3 3 2 3 3 9 11 11 12 9 10 6 6 3 2 6 4 6 8 9 9 11 12
18 18 6 1 1 2 3 4 2 2 1 3 3 1 1 3 3 2 1 4 3 3 2 4 4 5 3 2 3 4 5 5 6 4 4 2 3 3 2 9 10 6 2 3 5 6 8 9 9 10 11 13 14 15
7 3 4 5 3 3 2 0 1 1 2 3 3 3 3 3 1 1 3 2 2 1 3 3 4 3 3 3 3 4 4 5 4 3 3 3 8 7 4 3 4 4 5 3 5 6 6 5 8 9 14 12 14 15
6 4 3 3 3 3 2 2 1 2 2 3 3 3 3 2 1 2 3 2 1 0 2 3 4 4 5 5 4 1 2 1 1 2 6 6 2 4 1 3 4 4 5 6 6 6 6 7 11 14 14 12 13 14
2 4 2 2 1 2 3 4 3 2 3 3 3 2 2 1 2 2 2 4 5 4 5 1 1 4 3 3 3 7 3 3 5 1 5 4 4 1 3 3 4 7 8 9 9 11 12 12 13 13 11 11 14 16
4 2 1 2 3 1 3 4 3 4 3 2 1 2 1 2 5 3 2 2 4 2 2 2 2 1 3 6 4 5 8 7 3 4 7 7 8 7 7 5 5 6 12 12 12 13 14 14 14 13 14 13 13 15
3 2 2 1 1 2 3 3 3 2 2 2 2 3 3 2 2 2 2 2 3 6 7 3 3 4 3 5 4 4 7 4 4 6 6 8 10 10 10 11 11 14 13 13 14 14 14 14 13 13 13 12 12 14
3 1 5 3 2 1 3 3 2 3 3 3 3 2 1 2 2 3 2 8 7 4 5 6 1 3 4 5 5 5 4 3 3 2 3 3 8 11 11 10 10 12 10 9 13 13 15 14 15 14 14 12 11 12
2 3 1 5 3 3 4 4 3 3 3 1 1 1 2 2 7 7 7 8 9 11 10 13 16 12 9 9 10 12 10 10 4 4 5 5 8 11 11 12 13 14 15 14 11 13 13 12 13 12 11 11 10 10
3 2 2 2 2 3 3 4 3 1 1 1 1 1 2 4 9 17 12 15 14 14 16 13 14 14 9 10 11 11 12 12 13 11 7 6 8 10 13 14 15 14 14 13 12 12 12 10 8 10 12 11 13 13
2 1 1 2 2 2 3 4 1 2 1 1 2 5 3 2 5 19 18 11 9 9 12 14 15 15 13 13 12 10 9 11 11 11 10 8 9 10 12 12 12 12 12 11 11 12 13 11 11 12 12 13 14 14
6 6 3 5 5 5 7 5 5 4 2 5 5 3 3 5 7 6 14 12 13 13 14 13 13 13 13 11 10 9 8 8 9 9 9 9 10 11 11 11 12 11 11 10 10 11 12 12 12 12 12 12 13 13
8 9 10 9 3 3 1 4 4 2 1 3 2 4 6 6 5 4 7 9 9 9 9 9 8 9 10 10 10 8 7 8 9 10 10 10 9 10 12 13 11 10 9 9 9 10 11 11 11 11 11 12 13 14
Wind_Direction
272 275 281 286 288 270 248 252 253 242 237 231 228 220 204 205 212 199 224 216 264 263 283 244 253 257 252 251 268 47 260 191 248 249 264 285 273 4 272 349 335 305 323 327 308 287 247 10 309 293 4 324 335 325
269 272 274 279 286 271 249 247 250 238 232 227 224 223 199 203 212 200 233 219 233 253 296 296 259 257 255 263 291 257 331 328 330 273 211 269 248 259 305 291 186 280 2 324 336 332 340 1 240 132 8 316 28 63
267 266 267 273 281 270 252 248 247 237 225 220 221 212 198 202 209 206 198 195 219 276 272 239 242 238 234 238 241 247 253 268 237 317 322 315 273 261 253 339 296 158 16 278 322 28 11 170 199 200 185 325 68 80
268 264 263 266 273 267 251 246 246 233 218 215 217 225 199 203 205 211 187 211 237 292 281 107 137 209 242 249 221 220 240 273 275 265 274 279 279 188 313 330 284 11 257 333 315 40 338 154 129 114 138 127 86 62
263 261 258 261 262 270 247 240 242 225 209 210 215 196 184 199 204 211 219 232 213 271 320 307 301 288 185 239 215 210 219 235 274 259 243 254 275 280 249 276 257 193 21 343 333 6 325 159 59 332 86 79 28 34
260 256 253 254 254 271 248 233 229 214 198 202 191 182 184 191 198 171 240 226 220 212 272 283 31 184 153 170 188 194 205 218 235 248 257 256 261 273 273 278 313 265 248 316 315 40 342 72 114 39 322 30 71 36
257 251 247 249 248 267 242 229 225 198 194 194 180 182 191 200 180 206 3 40 179 182 249 277 253 131 154 141 150 185 206 208 232 242 239 261 254 207 275 268 268 277 303 333 283 171 231 190 170 201 162 103 83 64
247 243 243 245 248 253 229 224 203 183 183 177 177 177 182 174 202 245 242 219 158 243 255 274 265 212 189 175 156 176 179 205 210 252 238 252 199 239 261 271 289 285 302 271 185 202 263 187 190 128 120 107 83 60
237 238 238 232 247 237 225 204 177 173 170 169 170 172 148 182 199 158 186 172 187 286 293 247 273 101 178 208 127 184 198 207 172 233 234 242 231 221 265 289 298 327 333 60 179 181 216 226 178 147 135 105 83 71
232 230 226 236 235 213 210 175 173 171 169 164 142 156 184 158 150 126 159 174 197 197 227 255 264 247 288 179 192 201 193 242 213 198 143 234 260 22 2 325 302 290 302 232 188 205 223 231 187 169 153 116 108 98
223 222 226 228 209 199 185 171 168 166 160 160 194 143 103 143 150 202 195 219 168 227 210 232 251 269 144 257 195 217 184 198 252 133 244 202 157 2 343 333 335 277 228 260 212 348 321 322 158 154 162 136 122 125
217 217 218 206 193 187 168 169 172 156 166 186 110 110 134 185 198 211 198 175 221 238 177 219 174 213 202 263 256 191 259 223 262 126 246 231 23 353 348 353 14 43 161 186 247 274 125 123 138 152 148 146 136 141
202 201 194 195 191 168 166 175 175 176 140 120 86 153 188 163 194 211 188 193 209 186 187 191 181 217 171 222 251 252 241 229 137 217 136 50 358 352 14 8 33 41 57 66 84 92 100 111 116 127 128 130 168 307
189 184 186 181 166 167 168 173 153 151 156 178 183 157 213 179 218 188 195 147 108 217 166 214 216 220 180 199 244 232 254 259 241 278 58 27 334 21 51 27 28 35 44 49 69 79 80 81 82 79 79 60 358 332
174 176 167 159 164 168 174 179 160 150 106 223 201 203 197 108 167 164 130 216 202 249 250 190 221 249 166 232 204 292 228 230 38 84 53 53 304 344 43 58 43 19 16 1 24 46 53 60 71 85 63 21 5 28
146 139 153 161 167 172 173 163 145 111 262 244 225 199 136 197 142 166 167 190 126 217 212 242 225 220 191 283 233 224 254 32 80 51 38 99 352 26 18 19 27 59 31 322 15 47 47 53 55 42 0 356 4 320
137 126 151 156 157 159 155 131 128 229 265 225 156 111 37 69 80 84 111 193 217 234 201 207 208 100 56 241 138 10 29 57 38 41 6 329 288 312 327 348 334 12 323 270 3 26 352 321 297 277 269 288 311 295
123 146 150 145 147 119 94 89 190 231 196 144 190 115 101 355 20 117 82 38 252 207 242 51 320 213 358 287 93 80 58 24 10 350 306 307 300 268 245 299 327 299 291 263 294 293 289 310 294 326 314 297 281 262
140 145 151 153 146 106 112 342 260 151 74 92 116 113 66 2 317 283 287 345 327 350 255 214 239 278 56 19 11 359 357 348 349 352 308 307 322 269 248 262 275 270 264 265 263 323 321 307 321 337 351 333 310 319
142 141 139 130 151 206 126 139 213 261 148 94 160 146 155 273 342 281 358 52 305 233 189 218 173 47 10 24 355 328 324 334 333 322 4 39 9 346 318 313 305 316 312 303 284 302 270 270 199 331 331 329 309 332
135 144 162 177 192 66 67 148 131 42 115 157 99 238 137 199 216 215 153 338 243 247 206 51 340 53 16 5 331 323 320 309 346 359 2 337 342 336 337 336 323 325 351 310 310 272 234 6 349 341 334 322 352 326
119 134 146 184 106 98 87 34 29 96 224 102 165 184 184 200 196 188 341 241 247 260 330 338 348 332 321 332 4 331 342 320 323 338 106 324 300 334 341 276 295 266 204 3 349 349 18 342 359 325 333 339 323 322
121 70 56 33 75 70 76 297 166 117 159 128 170 171 164 171 135 223 244 285 325 18 336 334 347 324 312 318 326 330 314 305 334 331 32 322 331 324 328 346 339 324 336 53 349 323 307 340 303 308 311 318 329 323
45 49 40 50 67 97 162 124 146 129 155 174 174 162 167 111 150 231 264 275 95 263 298 302 266 260 229 229 254 24 358 254 298 344 331 324 119 219 195 45 48 37 3 357 338 319 305 302 319 305 314 327 324 322
62 9 58 351 113 148 120 137 134 167 137 157 167 169 139 208 233 228 285 12 351 337 326 295 261 247 252 215 117 103 61 63 149 197 320 341 296 234 47 21 40 20 1 340 336 322 322 309 300 313 320 326 346 330
72 65 43 97 118 162 140 134 138 129 119 127 109 76 23 7 16 346 322 298 295 307 19 315 142 189 169 105 118 108 48 29 79 96 66 48 35 21 18 23 356 34 4 345 338 332 326 325 322 325 320 322 316 311
87 81 94 88 46 153 139 94 104 122 90 67 69 60 36 49 248 247 228 227 300 8 4 12 25 72 79 47 21 26 357 50 65 85 82 69 55 38 23 13 6 355 347 351 343 332 326 322 328 330 332 337 351 1
49 15 126 99 88 14 95 96 75 46 47 26 38 28 275 249 356 5 347 347 341 355 94 128 103 18 9 23 28 41 49 74 95 119 119 80 60 37 21 14 16 8 360 11 5 360 356 356 354 356 0 19 9 12
91 121 177 118 90 70 39 42 65 59 36 49 230 301 7 32 349 350 358 1 81 95 86 83 77 79 78 78 66 62 53 48 60 47 22 21 22 17 7 4 0 357 356 352 10 26 19 13 15 4 359 1 357 357
91 56 61 86 64 69 65 30 74 88 119 215 253 88 54 53 22 42 44 48 57 68 83 86 109 103 87 73 70 58 46 41 34 28 26 25 17 7 4 2 0 359 360 359 359 358 10 358 6 11 11 11 11 355
86 74 63 64 62 92 108 113 47 353 80 71 254 74 82 149 85 46 39 31 40 57 73 70 59 53 51 43 29 24 49 37 38 38 28 23 17 12 5 360 358 360 1 2 4 10 3 5 10 5 12 10 12 8
181 195 188 124 102 130 165 158 140 131 149 86 65 65 89 98 69 49 17 26 52 61 50 49 52 46 34 34 30 28 19 25 30 29 21 17 14 5 357 358 357 357 358 1 8 15 13 12 16 16 14 16 13 12
105 102 115 104 114 78 67 107 87 91 138 107 74 53 67 63 67 41 39 39 35 28 30 31 29 30 26 19 16 17 47 63 54 52 48 47 37 19 3 356 355 0 5 16 19 21 22 22 25 21 20 16 11 8